TPC74 EHLE-ENKB

Flight info

Callsign TPC74
Flight time N/A
Altitude 45000
Route EHGG DCT EDWG DCT ETMN/N0414F430 DCT EDXO DCT EDXW DCT EKVJ/N0422F410 DCT EKTS/N0414F430 DCT ENCN DCT ENZV DCT ENHD/N0421F410 DCT ENSO/N0414F430 DCT VOO DCT ENFL/N0421F410 DCT ENAL
Aircraft PC24/M-SBDGIRWY/LB2

Departure

Time 2026-04-26 21:27
Airport Lelystad Airport (EHLE)

Arrival

Time N/A
Airport Kristiansund Airport, Kvernberget (ENKB)
Time Latitude Longitude Altitude Speed Heading
2026-04-26 21:19 52.45539 5.52321 -2 ft 0 kts 47°
2026-04-26 21:23 52.45557 5.52348 -10 ft 3 kts 21°
2026-04-26 21:23 52.45575 5.52305 -10 ft 9 kts 245°
2026-04-26 21:23 52.45511 5.52188 -10 ft 18 kts 228°
2026-04-26 21:23 52.45416 5.52014 -10 ft 23 kts 228°
2026-04-26 21:24 52.45300 5.51810 -10 ft 25 kts 227°
2026-04-26 21:24 52.45190 5.51596 -10 ft 24 kts 231°
2026-04-26 21:24 52.45077 5.51393 -10 ft 24 kts 229°
2026-04-26 21:24 52.44964 5.51192 -10 ft 24 kts 226°
2026-04-26 21:25 52.44847 5.51000 -10 ft 24 kts 228°
2026-04-26 21:25 52.44736 5.50806 -10 ft 23 kts 226°
2026-04-26 21:25 52.44632 5.50616 -10 ft 17 kts 229°
2026-04-26 21:25 52.44576 5.50454 -10 ft 16 kts 287°
2026-04-26 21:26 52.44649 5.50331 -8 ft 14 kts 320°
2026-04-26 21:26 52.44697 5.50337 -8 ft 0 kts 46°
2026-04-26 21:26 52.44710 5.50360 -8 ft 23 kts 47°
2026-04-26 21:26 52.45021 5.50913 -11 ft 105 kts 47°
2026-04-26 21:27 52.45654 5.52043 126 ft 155 kts 47°
2026-04-26 21:27 52.46443 5.53390 859 ft 166 kts 45°
2026-04-26 21:27 52.47289 5.54693 1895 ft 168 kts 43°
2026-04-26 21:27 52.48217 5.55940 2814 ft 179 kts 38°
2026-04-26 21:28 52.49298 5.57218 3704 ft 203 kts 33°
2026-04-26 21:28 52.50404 5.58711 4927 ft 211 kts 39°
2026-04-26 21:28 52.51466 5.60333 6292 ft 210 kts 44°
2026-04-26 21:28 52.52429 5.62224 7365 ft 222 kts 48°
2026-04-26 21:29 52.53404 5.64303 8309 ft 237 kts 47°
2026-04-26 21:29 52.54513 5.66237 9725 ft 225 kts 38°
2026-04-26 21:29 52.55753 5.67850 10806 ft 234 kts 34°
2026-04-26 21:29 52.57082 5.69391 11858 ft 235 kts 31°
2026-04-26 21:30 52.58332 5.71238 12844 ft 245 kts 43°
2026-04-26 21:30 52.59457 5.73382 13906 ft 251 kts 47°
2026-04-26 21:30 52.60664 5.75504 14827 ft 256 kts 40°
2026-04-26 21:30 52.61544 5.76797 15473 ft 257 kts 38°
2026-04-26 21:31 52.63338 5.79489 16753 ft 264 kts 40°
2026-04-26 21:31 52.64677 5.81583 17675 ft 267 kts 35°
2026-04-26 21:31 52.66367 5.82646 18584 ft 261 kts 358°
2026-04-26 21:31 52.68129 5.82186 19352 ft 262 kts 343°
2026-04-26 21:32 52.69921 5.81480 20122 ft 267 kts 346°
2026-04-26 21:32 52.71782 5.81120 20891 ft 273 kts 355°
2026-04-26 21:32 52.73699 5.81215 21649 ft 278 kts
2026-04-26 21:32 52.75645 5.81380 22392 ft 282 kts 358°
2026-04-26 21:33 52.77617 5.81427 23131 ft 285 kts 357°
2026-04-26 21:33 52.79618 5.81444 23855 ft 289 kts 357°
2026-04-26 21:33 52.81643 5.81488 24470 ft 293 kts 357°
2026-04-26 21:33 52.83688 5.81545 25086 ft 295 kts 357°
2026-04-26 21:34 52.85750 5.81596 25688 ft 298 kts 357°
2026-04-26 21:34 52.87832 5.81646 26297 ft 300 kts 357°
2026-04-26 21:34 52.89921 5.81693 26891 ft 302 kts 356°
2026-04-26 21:34 52.92036 5.81744 27450 ft 305 kts 357°
2026-04-26 21:35 52.94163 5.81800 28006 ft 307 kts 356°
2026-04-26 21:35 52.96304 5.81851 28628 ft 307 kts 356°
2026-04-26 21:35 52.98434 5.81901 29274 ft 306 kts 356°
2026-04-26 21:35 53.00557 5.81953 29925 ft 304 kts 356°
2026-04-26 21:36 53.02672 5.82004 30531 ft 303 kts 356°
2026-04-26 21:36 53.04068 5.82038 30865 ft 303 kts 356°
2026-04-26 21:36 53.06888 5.82105 31533 ft 303 kts 356°
2026-04-26 21:36 53.08991 5.82157 32026 ft 302 kts 356°
2026-04-26 21:37 53.11097 5.82208 32525 ft 302 kts 356°
2026-04-26 21:37 53.13199 5.82259 32996 ft 302 kts 356°
2026-04-26 21:37 53.15297 5.82311 33468 ft 301 kts 356°
2026-04-26 21:37 53.17394 5.82361 33932 ft 301 kts 356°
2026-04-26 21:38 53.19482 5.82413 34376 ft 301 kts 356°
2026-04-26 21:38 53.21552 5.82462 34740 ft 301 kts 356°
2026-04-26 21:38 53.23644 5.82514 35123 ft 300 kts 356°
2026-04-26 21:38 53.25730 5.82565 35502 ft 300 kts 356°
2026-04-26 21:39 53.27805 5.82617 35493 ft 296 kts 356°
2026-04-26 21:39 53.29847 5.82669 35322 ft 287 kts 356°
2026-04-26 21:39 53.31820 5.82718 35310 ft 282 kts 356°
2026-04-26 21:39 53.33823 5.82759 35318 ft 294 kts 356°
2026-04-26 21:40 53.35913 5.82806 35336 ft 307 kts 356°
2026-04-26 21:40 53.38098 5.82860 35338 ft 320 kts 357°
2026-04-26 21:40 53.40370 5.82919 35336 ft 333 kts 357°
2026-04-26 21:40 53.42717 5.82978 35332 ft 344 kts 357°
2026-04-26 21:41 53.45152 5.83037 35326 ft 355 kts 357°
2026-04-26 21:41 53.47659 5.83100 35325 ft 365 kts 357°
2026-04-26 21:41 53.52456 5.83219 35325 ft 381 kts 358°
2026-04-26 21:42 53.57862 5.83354 35321 ft 395 kts 358°
2026-04-26 21:42 53.63446 5.83493 35319 ft 407 kts 357°
2026-04-26 21:43 53.68180 5.83613 35320 ft 412 kts 358°
2026-04-26 21:43 53.73913 5.83757 35326 ft 411 kts 358°
2026-04-26 21:44 53.79640 5.83900 35322 ft 411 kts 358°
2026-04-26 21:44 53.85349 5.84043 35340 ft 410 kts 358°
2026-04-26 21:45 53.91013 5.84186 35336 ft 409 kts 357°
2026-04-26 21:45 53.96701 5.84330 35335 ft 408 kts 357°
2026-04-26 21:46 54.02377 5.84473 35334 ft 410 kts 357°
2026-04-26 21:46 54.08114 5.84618 35336 ft 413 kts 357°
2026-04-26 21:47 54.13839 5.84765 35333 ft 410 kts 357°
2026-04-26 21:47 54.19525 5.84909 35329 ft 408 kts 357°
2026-04-26 21:48 54.25174 5.85053 35327 ft 410 kts 357°
2026-04-26 21:48 54.30904 5.85200 35321 ft 415 kts 357°
2026-04-26 21:49 54.36692 5.85351 35335 ft 414 kts 357°
2026-04-26 21:49 54.42431 5.85500 35328 ft 411 kts 357°
2026-04-26 21:50 54.48173 5.85646 35329 ft 414 kts 357°
2026-04-26 21:50 54.53955 5.85797 35333 ft 416 kts 357°
2026-04-26 21:51 54.59738 5.85949 35333 ft 415 kts 357°
2026-04-26 21:51 54.65500 5.86099 35330 ft 413 kts 357°
2026-04-26 21:52 54.71232 5.86249 35328 ft 412 kts 357°
2026-04-26 21:52 54.77002 5.86399 35331 ft 415 kts 357°
2026-04-26 21:53 54.82790 5.86552 35332 ft 417 kts 357°
2026-04-26 21:53 54.88570 5.86706 35330 ft 414 kts 356°
2026-04-26 21:54 54.94282 5.86857 35325 ft 412 kts 357°
2026-04-26 21:54 55.00011 5.87008 35323 ft 412 kts 357°
2026-04-26 21:55 55.05769 5.87161 35323 ft 415 kts 357°
2026-04-26 21:55 55.11554 5.87316 35327 ft 416 kts 357°
2026-04-26 21:56 55.17322 5.87473 35322 ft 411 kts 356°
2026-04-26 21:56 55.23043 5.87624 35317 ft 412 kts 356°
2026-04-26 21:57 55.28789 5.87779 35316 ft 414 kts 356°
2026-04-26 21:57 55.34554 5.87935 35318 ft 415 kts 356°
2026-04-26 21:58 55.40331 5.88092 35325 ft 415 kts 356°
2026-04-26 21:58 55.46060 5.88249 35314 ft 410 kts 356°
2026-04-26 21:59 55.51792 5.88402 35312 ft 413 kts 356°
2026-04-26 21:59 55.57558 5.88561 35313 ft 415 kts 356°
2026-04-26 22:00 55.63314 5.88720 35311 ft 413 kts 356°
2026-04-26 22:00 55.69039 5.88877 35315 ft 410 kts 356°
2026-04-26 22:01 55.74735 5.89032 35313 ft 410 kts 356°
2026-04-26 22:01 55.80449 5.89190 35316 ft 411 kts 356°
2026-04-26 22:02 55.86185 5.89350 35316 ft 413 kts 356°
2026-04-26 22:02 55.91933 5.89510 35315 ft 412 kts 356°
2026-04-26 22:03 55.97644 5.89670 35309 ft 409 kts 356°
2026-04-26 22:03 56.03339 5.89828 35310 ft 410 kts 356°
2026-04-26 22:04 56.09064 5.89989 35313 ft 412 kts 356°
2026-04-26 22:04 56.14776 5.90150 35317 ft 413 kts 356°
2026-04-26 22:05 56.20501 5.90314 35314 ft 408 kts 356°
2026-04-26 22:05 56.26174 5.90471 35311 ft 409 kts 356°
2026-04-26 22:06 56.31892 5.90635 35315 ft 411 kts 356°
2026-04-26 22:06 56.37594 5.90799 35313 ft 409 kts 356°
2026-04-26 22:07 56.43266 5.90960 35305 ft 407 kts 356°
2026-04-26 22:07 56.48929 5.91122 35308 ft 406 kts 355°
2026-04-26 22:08 56.54578 5.91285 35308 ft 405 kts 355°
2026-04-26 22:08 56.60229 5.91447 35313 ft 407 kts 355°
2026-04-26 22:09 56.65917 5.91612 35315 ft 410 kts 355°
2026-04-26 22:09 56.71621 5.91779 35311 ft 409 kts 355°
2026-04-26 22:10 56.77265 5.91944 35298 ft 405 kts 355°
2026-04-26 22:10 56.82907 5.92105 35297 ft 406 kts 355°
2026-04-26 22:11 56.88570 5.92273 35302 ft 408 kts 355°
2026-04-26 22:11 56.94254 5.92439 35302 ft 409 kts 355°
2026-04-26 22:12 56.99930 5.92609 35301 ft 405 kts 355°
2026-04-26 22:12 57.05532 5.92771 35296 ft 403 kts 355°
2026-04-26 22:13 57.11161 5.92937 35296 ft 405 kts 355°
2026-04-26 22:13 57.16814 5.93106 35296 ft 407 kts 355°
2026-04-26 22:14 57.22460 5.93276 35299 ft 404 kts 355°
2026-04-26 22:14 57.28090 5.93442 35301 ft 405 kts 355°
2026-04-26 22:15 57.33738 5.93612 35298 ft 406 kts 355°
2026-04-26 22:15 57.39387 5.93782 35299 ft 406 kts 355°
2026-04-26 22:16 57.45050 5.93953 35302 ft 407 kts 355°
2026-04-26 22:16 57.50718 5.94125 35297 ft 407 kts 355°
2026-04-26 22:17 57.56364 5.94299 35298 ft 403 kts 355°
2026-04-26 22:17 57.61978 5.94465 35295 ft 405 kts 355°
2026-04-26 22:18 57.67629 5.94641 35298 ft 405 kts 355°
2026-04-26 22:18 57.73211 5.94813 35292 ft 403 kts 355°
2026-04-26 22:19 57.78811 5.94982 35304 ft 404 kts 355°
2026-04-26 22:19 57.84420 5.95160 35290 ft 401 kts 355°
2026-04-26 22:20 57.89088 5.95300 35288 ft 401 kts 355°
2026-04-26 22:20 57.95579 5.95503 35289 ft 401 kts 355°
2026-04-26 22:21 58.01163 5.95676 35290 ft 402 kts 355°
2026-04-26 22:21 58.06759 5.95851 35313 ft 402 kts 355°
2026-04-26 22:22 58.12326 5.96029 35284 ft 397 kts 355°
2026-04-26 22:22 58.17867 5.96198 35286 ft 399 kts 355°
2026-04-26 22:23 58.23430 5.96375 35284 ft 400 kts 355°
2026-04-26 22:23 58.29006 5.96551 35285 ft 401 kts 355°
2026-04-26 22:24 58.34593 5.96728 35303 ft 402 kts 355°
2026-04-26 22:24 58.40109 5.96908 35280 ft 394 kts 354°
2026-04-26 22:25 58.44697 5.97044 35285 ft 398 kts 355°
2026-04-26 22:25 58.50221 5.97230 35290 ft 396 kts 354°
2026-04-26 22:26 58.55710 5.97403 35286 ft 394 kts 354°
2026-04-26 22:26 58.61198 5.97579 35287 ft 396 kts 354°
2026-04-26 22:27 58.66716 5.97757 35294 ft 398 kts 355°
2026-04-26 22:27 58.72264 5.97938 35298 ft 398 kts 355°
2026-04-26 22:28 58.77781 5.98120 35297 ft 395 kts 355°
2026-04-26 22:28 58.83264 5.98296 35295 ft 394 kts 355°
2026-04-26 22:29 58.88773 5.98474 35298 ft 397 kts 355°
2026-04-26 22:29 58.94249 5.98663 35295 ft 389 kts 354°
2026-04-26 22:30 58.99695 5.98830 35293 ft 393 kts 354°
2026-04-26 22:30 59.05159 5.99017 35293 ft 393 kts 354°
2026-04-26 22:31 59.10624 5.99197 35293 ft 392 kts 354°
2026-04-26 22:31 59.16083 5.99378 35293 ft 392 kts 354°
2026-04-26 22:32 59.21530 5.99563 35291 ft 388 kts 354°
2026-04-26 22:32 59.26927 5.99739 35285 ft 389 kts 354°
2026-04-26 22:33 59.35064 6.00017 35288 ft 389 kts 354°
2026-04-26 22:34 59.40456 6.00195 35287 ft 386 kts 354°
2026-04-26 22:34 59.45848 6.00376 35289 ft 390 kts 354°
2026-04-26 22:35 59.51245 6.00567 35291 ft 384 kts 354°
2026-04-26 22:35 59.56614 6.00741 35290 ft 388 kts 354°
2026-04-26 22:36 59.62019 6.00931 35294 ft 387 kts 354°
2026-04-26 22:36 59.67377 6.01114 35282 ft 384 kts 354°
2026-04-26 22:37 59.72741 6.01295 35289 ft 386 kts 354°
2026-04-26 22:37 59.78120 6.01484 35291 ft 384 kts 354°
2026-04-26 22:38 59.83409 6.01663 35295 ft 383 kts 354°
2026-04-26 22:38 59.88765 6.01850 35301 ft 386 kts 354°
2026-04-26 22:39 59.94128 6.02039 35290 ft 384 kts 354°
2026-04-26 22:39 59.99454 6.02223 35284 ft 382 kts 354°
2026-04-26 22:40 60.04782 6.02410 35292 ft 384 kts 354°
2026-04-26 22:40 60.10092 6.02602 35281 ft 380 kts 354°
2026-04-26 22:41 60.15405 6.02781 35277 ft 384 kts 354°
2026-04-26 22:41 60.20721 6.02976 35275 ft 380 kts 354°
2026-04-26 22:42 60.26010 6.03158 35276 ft 381 kts 354°
2026-04-26 22:42 60.31332 6.03348 35272 ft 383 kts 354°
2026-04-26 22:43 60.36648 6.03545 35271 ft 378 kts 354°
2026-04-26 22:43 60.41917 6.03726 35262 ft 380 kts 354°
2026-04-26 22:44 60.47219 6.03920 35265 ft 382 kts 354°
2026-04-26 22:44 60.52504 6.04113 35255 ft 377 kts 354°
2026-04-26 22:45 60.57775 6.04298 35255 ft 381 kts 354°
2026-04-26 22:45 60.63081 6.04495 35254 ft 381 kts 354°
2026-04-26 22:46 60.68320 6.04686 35246 ft 376 kts 354°
2026-04-26 22:46 60.73576 6.04875 35249 ft 379 kts 354°
2026-04-26 22:47 60.78841 6.05073 35247 ft 377 kts 354°
2026-04-26 22:47 60.84085 6.05263 35247 ft 377 kts 354°
2026-04-26 22:48 60.89326 6.05458 35250 ft 376 kts 354°
2026-04-26 22:48 60.94552 6.05652 35267 ft 373 kts 354°
2026-04-26 22:49 60.99744 6.05843 35270 ft 374 kts 354°
2026-04-26 22:49 61.04964 6.06036 35274 ft 376 kts 354°
2026-04-26 22:50 61.10159 6.06235 35272 ft 374 kts 354°
2026-04-26 22:50 61.15345 6.06427 35266 ft 372 kts 354°
2026-04-26 22:51 61.20550 6.06618 35303 ft 377 kts 354°
2026-04-26 22:51 61.25857 6.06824 35276 ft 380 kts 354°
2026-04-26 22:52 61.31157 6.07022 35278 ft 382 kts 354°
2026-04-26 22:52 61.33734 6.07138 35262 ft 356 kts 354°
2026-04-26 22:52 61.36112 6.07250 35254 ft 328 kts 353°
2026-04-26 22:52 61.38307 6.07328 35252 ft 304 kts 352°
2026-04-26 22:53 61.40348 6.07397 35253 ft 283 kts 352°
2026-04-26 22:53 61.42249 6.07468 35252 ft 264 kts 351°
2026-04-26 22:53 61.44007 6.07536 35253 ft 248 kts 351°
2026-04-26 22:53 61.45676 6.07599 35253 ft 232 kts 350°
2026-04-26 22:54 61.47229 6.08191 34597 ft 235 kts 18°
2026-04-26 22:54 61.48248 6.10142 27159 ft 175 kts 38°
2026-04-26 22:54 61.48875 6.11093 14298 ft 156 kts 347°
2026-04-26 22:54 61.49719 6.10606 11696 ft 129 kts 342°
2026-04-26 22:55 61.50666 6.09807 10066 ft 193 kts 326°
2026-04-26 22:55 61.52091 6.07670 6652 ft 306 kts 327°
2026-04-26 22:55 61.54103 6.05017 3908 ft 358 kts 329°
2026-04-26 22:55 61.55409 6.03451 3691 ft 157 kts 315°
2026-04-26 22:56 61.56156 6.01731 4376 ft 186 kts 300°
2026-04-26 22:56 61.56507 5.98947 3836 ft 168 kts 276°
2026-04-26 22:56 61.56604 5.95888 2333 ft 245 kts 287°
2026-04-26 22:56 61.57089 5.93810 2268 ft 185 kts 303°
2026-04-26 22:57 61.57835 5.91474 2769 ft 178 kts 304°
2026-04-26 22:57 61.58820 5.90189 2233 ft 157 kts 27°
2026-04-26 22:57 61.59766 5.91195 2308 ft 144 kts 26°
2026-04-26 22:57 61.60631 5.92116 2309 ft 135 kts 26°
2026-04-26 22:58 61.61456 5.92993 2288 ft 131 kts 26°
2026-04-26 22:58 61.62085 5.93657 2933 ft 157 kts 26°
2026-04-26 22:58 61.63044 5.94680 3879 ft 157 kts 27°
2026-04-26 22:58 61.63974 5.95717 3995 ft 146 kts 27°
2026-04-26 22:59 61.64843 5.96689 4042 ft 138 kts 26°
2026-04-26 22:59 61.65682 5.97631 4041 ft 135 kts 27°
2026-04-26 22:59 61.66505 5.98556 3997 ft 133 kts 27°
2026-04-26 22:59 61.67319 5.99471 3929 ft 132 kts 27°
2026-04-26 23:00 61.68125 6.00381 3852 ft 131 kts 27°